Tracking 28790 objects as of 19-Apr-2024
HD Live streaming from Space Station
objects crossing your sky now

THORAD AGENA D DEB

Track THORAD AGENA D DEB now!
10-day predictions


NORAD ID: 4682
Int'l Code: 1970-025BF
Perigee: 1,068.4 km
Apogee: 1,285.4 km
Inclination: 99.8 °
Period: 108.8 minutes
Semi major axis: 7547 km
RCS: 0.1282 m2 (medium)
Launch date: April 8, 1970
Source: United States (US)
Launch site: AIR FORCE WESTERN TEST RANGE (AFWTR)

Note: This is SATELLITE DEBRIS
Your satellite tracking list
Your tracking list is empty




NASA's NSSDC Master Catalog

Two Line Element Set (TLE):
1  4682U 70025BF  24109.72201144  .00000395  00000-0  96840-3 0  9998
2  4682  99.8126 159.4908 0143755 226.1049 263.9594 13.23915751604029
Source of the keplerian elements: AFSPC